{"data":{"norad_id":45686,"epoch":"2026-09-20T04:25:54.897024Z","epoch_age_seconds":45347,"freshness":"FRESH","line1":"1 45686U 20035AF  26263.18466316  .00061980  00000+0  88017-3 0  9993","line2":"2 45686  53.1497 206.0811 0004964 102.4531 257.7037 15.55840314349033","mean_motion":15.55840314,"eccentricity":0.0004964,"inclination_deg":53.1497,"raan_deg":206.0811,"arg_perigee_deg":102.4531,"mean_anomaly_deg":257.7037,"bstar":0.00088017,"rev_number":34903,"period_min":92.554485639842,"perigee_km":396.34651600005,"apogee_km":403.07556353393,"semimajor_km":6777.848039767,"source":"CELESTRAK","updated_at":"2026-09-20T09:00:38.452670Z"}}